Regional Weather Roundup
Issued by NWS

Home | Current Version | Previous Version | Graphics & Text | Print | Product List | Glossary On
Versions: 1 2 3 4 5 6 7 8 9 10 11 12 13 14 15 16 17 18 19 20 21 22 23 24 25 26 27 28 29 30 31 32 33 34 35 36 37 38 39 40 41 42 43 44 45 46 47 48 49 50
000
ASUS45 KTFX 191719
RWRMT
MONTANA HOURLY WEATHER ROUNDUP
NATIONAL WEATHER SERVICE GREAT FALLS MT
1019 AM MST FRI DEC 19 2014

NOTE: "FAIR" INDICATES FEW OR NO CLOUDS BELOW 12000 FEET WITH NO
SIGNIFICANT WEATHER AND/OR OBSTRUCTIONS TO VISIBILITY.

* THESE STATIONS ARE NOT UNDER NWS QUALITY CONTROL. THEY DO NOT
   REPORT WEATHER SUCH AS PRECIPITATION OR FOG.

MTZ001>007-043-191800-
WEST OF THE DIVIDE
CITY           SKY/WX    TMP DP  RH WIND       PRES   REMARKS
KALISPELL      LGT RAIN  34  32  92 CALM      29.89F VSB 1 3/4
MISSOULA       CLOUDY    30  28  92 CALM      29.95F
BUTTE          PTSUNNY   21  19  92 CALM      29.96S
MULLAN PASS    SNOW      32  28  85 VRB6      29.84S VSB M1/4 WCI  26
* ANACONDA     PTCLDY    37  25  62 S6         N/A   WCI  32
* ESSEX        N/A       29  28  96 N/A        N/A
* EUREKA APT   PTSUNNY   39  34  82 S12       29.88S WCI  32
* HAMILTON APT PTCLDY    43  28  56 S12       29.92F
* LIBBY APT    CLOUDY    32  32 100 CALM      29.90F VSB 1 3/4
* LINCOLN      N/A       22  21  96 E1         N/A
* LOOKOUT PASS N/A       33  33 100 N/A        N/A
* POLSON       N/A       35  31  85 SE1        N/A
* RONAN APT    PTSUNNY   32  30  92 N/A        N/A
* SEELEY LAKE  N/A       27  25  92 N/A        N/A
* THOMP F APT  CLOUDY    26  24  92 SE4G11     N/A
* YAAK HILL    N/A       35  33  92 N/A        N/A
$$

MTZ008-052>055-191800-
SOUTHWEST MONTANA
CITY           SKY/WX    TMP DP  RH WIND       PRES   REMARKS
BOZEMAN        PTCLDY    27  19  72 SE3       29.97S
DILLON         PTCLDY    32  25  75 S6        29.99S WCI  26
* W YELLOWSTON PTCLDY    28  24  85 SW4        N/A
* THREE FORKS  PTSUNNY   39  39 100 S6         N/A   WCI  35
* BOULDER HILL N/A       29  17  61 SW19       N/A   WCI  16
* MONIDA PASS  N/A       24  24 100 SE17       N/A   WCI  11
* RAYNOLDS PAS N/A       27  10  49 SE14G20    N/A   WCI  16
* WHITEHALL    N/A       33  24  70 SE3G8      N/A
* WISE RIVER   N/A       25  21  85 SE4G10     N/A
$$

MTZ009>010-012-014-046-048-049-054-191800-
EAST SLOPES AND CENTRAL MONTANA
CITY           SKY/WX    TMP DP  RH WIND       PRES   REMARKS
CUT BANK       CLOUDY    32  25  75 S7        29.79F WCI  25
GREAT FALLS    CLOUDY    37  27  67 S13       29.84F WCI  29
HELENA         CLOUDY    28  25  89 W3        29.94F
MALMSTROM AFB  CLOUDY    39  28  65 SW16G24   29.86F WCI  30
* CONRAD       CLOUDY    23  19  85 CALM       N/A
* DEARBORN     N/A       40  25  55 S12        N/A   WCI  33
* EAST GLACIER N/A       37  27  67 W22G37     N/A   WCI  26
* MONARCH      N/A       33  17  52 SW13G22    N/A   WCI  24
* PENDROY      N/A       33  25  72 W4         N/A
* ROGERS PASS  N/A       32  23  69 SE13G26    N/A   WCI  22
* SWEET GRASS  N/A       25  22  88 S16        N/A   WCI  12
* WHITE SULPH  N/A       36  23  59 S15G23     N/A   WCI  27
$$

MTZ011-013-016-021-035-040-045-047-050-051-191800-
NORTH CENTRAL MONTANA
CITY           SKY/WX    TMP DP  RH WIND       PRES   REMARKS
HAVRE          PTCLDY    23  19  85 E5        29.87F WCI  16
LEWISTOWN      PTSUNNY   32  21  64 E6        29.89S WCI  26
* N BAR RANCH  SUNNY     36  23  59 CALM      29.90F
* CHINOOK      PTCLDY    16  12  84 CALM      29.90F
* CHESTER      N/A       19  16  88 N2         N/A
* DENTON       N/A       30  23  75 SE9        N/A   WCI  22
* GEYSER       N/A       38  22  53 NW3G8      N/A
* JUDITH GAP   N/A       34  22  61 E8         N/A   WCI  27
* LOMA         N/A       27  24  88 NE7        N/A   WCI  19
$$

MTZ017>020-022>027-061-062-191800-
NORTHEAST MONTANA
CITY           SKY/WX    TMP DP  RH WIND       PRES   REMARKS
GLASGOW        FOG       27  23  85 CALM      29.92R
GLENDIVE       PTCLDY    34  25  70 SE3       29.95R
JORDAN         SUNNY     30  25  82 CALM      29.91S
SIDNEY         SUNNY     30  27  89 CALM      29.95F
WOLF POINT     SUNNY     23  19  85 SW3       29.95R
* BEAVER HILL  N/A       32  23  69 SW12       N/A   WCI  23
* CIRCLE       N/A       31  28  89 N/A        N/A
* LINDSAY DVD  N/A       38  27  65 W8         N/A   WCI  32
* NAVAJO       N/A       25  24  96 W2         N/A
* PLENTYWOOD A SUNNY     19  18  96 CALM      29.91S
* POPLAR APT   SUNNY     21  19  92 CALM      29.94S VSB 2
* SACO         N/A       19  18  96 NE1        N/A
$$

MTZ028>042-056>058-191800-
SOUTHCENTRAL AND SOUTHEAST MONTANA
CITY           SKY/WX    TMP DP  RH WIND       PRES   REMARKS
BAKER          PTSUNNY   34  25  70 CALM      29.94S
BILLINGS       PTSUNNY   32  18  56 SW15      29.94S WCI  22
LIVINGSTON     PTSUNNY   41  23  49 W21G35    29.92S
MILES CITY     SUNNY     28  23  81 S8        29.95S WCI  20
* FORSYTH APT  PTCLDY    34  23  64 CALM      29.94F
* LAUREL APT   PTCLDY    30  12  47 S7         N/A   WCI  23
* ROUNDUP APT  PTCLDY    36  19  50 S10G15     N/A   WCI  29
* ALZADA       N/A       31  21  66 SW4        N/A
* HYSHAM       N/A       34  17  50 W6         N/A   WCI  29
* LAME DEER    N/A       39  18  43 SW2G7      N/A
* REED POINT   N/A       23  22  96 N/A        N/A
* ROSCOE HILL  N/A       36   9  32 E3         N/A
$$

REGIONAL REPORTS...DAKOTAS
CITY           SKY/WX    TMP DP  RH WIND       PRES   REMARKS
WILLISTON      FOG       21  19  92 CALM      29.94S
DICKINSON      PTCLDY    36  27  70 W9        29.91R WCI  29
BEACH          SUNNY     32  27  82 W9        29.94R WCI  24
CROSBY         FOG       21  21 100 SW3       29.94S VSB 1
TIOGA          FOG       21  21 100 W5        29.95R VSB M1/4 WCI  14
WATFORD CITY   SUNNY     28  28 100 SW3       29.91S
BISMARCK       CLOUDY    25  23  92 SE3       29.97R
GRAND FORKS    FOG       25  25 100 S10       30.06F VSB 1    WCI  15
FARGO          FOG       28  25  89 S15       30.07F VSB 3    WCI  16
BUFFALO SD     PTSUNNY   34  25  70 W7        29.89R WCI  28
RAPID CITY     PTCLDY    41  23  49 W3        29.98S
$$

REGIONAL REPORTS...WYOMING/IDAHO/WASHINGTON
CITY           SKY/WX    TMP DP  RH WIND       PRES   REMARKS
GILLETTE       PTCLDY    36  18  48 SW15      29.96S WCI  27
SHERIDAN       SUNNY     34  18  52 CALM      29.95S
CODY           PTCLDY    41  21  45 W12G23    29.95F
YELLOWSTONE LA PTCLDY    27  21  78 VRB3      30.07S
SALMON         CLOUDY    30  23  75 CALM      30.03F
MULLAN PASS    SNOW      32  28  85 VRB6      29.84S VSB M1/4 WCI  26
SAND POINT     N/A       36  36 100 CALM      29.89F
SPOKANE        CLOUDY    41  39  93 S10       29.86R
$$

REGIONAL REPORTS...ALBERTA
CITY           SKY/WX    TMP DP  RH WIND       PRES   REMARKS
CALGARY        PTSUNNY   28  21  75 SW7       29.65F WCI  21
LETHBRIDGE     PTSUNNY   32  28  85 S13G21    29.74S WCI  22
MEDICINE HAT   PTSUNNY   19  18  96 E5        29.80S WCI  12
EDMONTON       PTSUNNY   19  16  88 SE13      29.67F WCI   6
WATERTON GATE  N/A       39  30  70 SW15G23    N/A   WCI  31
CARDSTON       N/A       39  32  76 SW9        N/A   WCI  33
MILK RIVER     N/A       27  23  85 S1         N/A
$$

REGIONAL REPORTS...SASKATCHEWAN
CITY           SKY/WX    TMP DP  RH WIND       PRES   REMARKS
SWIFT CURRENT  SUNNY     27  25  92 S8        29.85S WCI  19
MOOSE JAW      FOG       18  16  92 CALM      29.94S VSB 1
REGINA         FOG       18  16  92 NW3       29.94S VSB 3/4
VAL MARIE      N/A       14  12  92 CALM       N/A
ASSINIBOIA     N/A       14  12  92 N1         N/A
CORONACH       N/A       18  16  92 CALM       N/A

$$



USA.gov is the U.S. government's official web portal to all federal, state and local government web resources and services.